Погода в Верхнедвинске

Погода в Верхнедвинске : погода сейчас, прогноз погоды и архив. Всё, что Вы хотите узнать о погоде в Верхнедвинске!

Хотите узнать прогноз погоды в Верхнедвинске? Тогда Вам сюда: Погода в Верхнедвинске

Поиск расширенной информации на нашем сайте:

Другие новости

Новости СМИ2

Главная страница сайта

Новости сайта

03.07.2017

Напоминаем, что на нашем специализированном сайте Метеоцентр.Азия вы можете получить высокодетализированные автоматические прогнозы погоды по пунктам России, СНГ и мира в авиационном формате (включающие направление и скорость ветра, видимость, явления погоды, количество и форму облачности, нижнюю и верхнюю границу облачности).


Погода в Верхнедвинске - сегодня

Время (UTC), дата Ветер
(°,м/с) 
Видим.   Явления Облачность Т
(°С)
Тd
(°С)
f(%) Тe
(°С)
Pmin
(гПа)
dP
(гПа)
Po
(мм)
O2
(г/м3)
Тmin Tmax R s Состояние
почвы
18 10.12.17 тихо ()   5000 м  дымка [диам. отлож. мокр. снега 28 мм]  9/0 средняя 
[Ac trans]
-2.4 -3.3 94 -2  1002.5  -0.2  739  301    -0.6  0.0   
21 10.12.17 тихо ()   4500 м  дымка [диам. отлож. мокр. снега 28 мм]  9/9 600 м 
[Sc]
-2 -2.6 96 -2  1002.7  0.2  740  300           
00 11.12.17 тихо ()   4300 м  дымка [диам. отлож. мокр. снега 28 мм]  9/9 600 м 
[Sc]
-2.7 -3.7 93 -3  1001.6  -1.1  739  301           
03 11.12.17 160 (Ю) 3100 м  дымка [диам. отлож. мокр. снега 28 мм]  9/5 600 м средняя 
[Sc|Ac trans]
-2.8 -3.5 95 -2  1001.6  739  301         
06 11.12.17 110 (В) 4200 м  дымка [диам. отлож. мокр. снега 28 мм]  9/0 средняя 
[Ac trans]
-3.2 -3.9 95 -4  1001.8  0.2  739  302  -3.9      равномерный
сухой снег
100% 
15 11.12.17 140 (ЮВ) 5000 м  дымка [диам. отлож. мокр. снега 28 мм]  9/0 средняя 
[Ac trans]
-2.1 -3 94 -4  1002.9  740  301           
18 11.12.17 130 (ЮВ) 6000 м  дымка [диам. отлож. мокр. снега 23 мм]  9/9 600 м 
[Sc]
-1.5 -2.3 94 -3  1004.5  1.6  741  300    -1.5     
21 11.12.17 140 (ЮВ) 5000 м  дымка [диам. отлож. мокр. снега 23 мм]  9/9 600 м 
[Sc]
-0.8 -1.2 97 -3  1003.8  -0.5  741  299           
03 12.12.17 130 (ЮВ) 4200 м  дымка  9/9 600 м 
[Sc]
+0.1 -0.4 96 -2  1002.6  -1.5  740  298         
06 12.12.17 130 (ЮВ) 5{10}  4600 м  дымка  9/9 600 м 
[Sc]
-0.2 -0.8 96 -3  1001.7  -0.9  739  298  -1.5      равномерный
мокрый или
старый снег
100% 
09 12.12.17 130 (ЮВ) 3{10}  4500 м  дымка  10/10 300 м 
[St]
+0.2 -0.9 92 -2  1000.4  -1.3  738  297           
12 12.12.17 140 (ЮВ) 3{10}  4300 м  дымка  10/10 300 м 
[St]
+0.6 -0.5 92 -1  998.4  -1.8  737  296           
15 12.12.17 170 (Ю) 6000 м  дымка  10/10 300 м 
[St]
+2 +0.9 92 +1  998.6  0.2  737  295           
21 12.12.17 170 (Ю) 9000 м  дымка  1/0 средняя 
[Ac trans]
+3.7 +2.4 91 +2  1000.4  738  293           
03 13.12.17 220 (ЮЗ) 6-10{14}  12000 м    9/9 600 м 
[Sc]
+3.7 -2.6 63 +1  1003.2  1.6  740  295         
06 13.12.17 240 (ЮЗ) 5{12}  12000 м    9/9 600 м 
[Sc]
+2.8 -2 71 1005.8  2.5  742  296  +2.6      мокрый или
старый снег
50-90% 
09 13.12.17 240 (ЮЗ) 6-10{11}  12000 м    9/9 600 м 
[Sc]
+2 -0.8 82 -1  1008.8  2.9  744  298           
12 13.12.17 250 (З) 4{10}  12000 м  в посл. час ливневой снег  3/1 600 м кучево-дожд., средняя 
[Cb cap|Ac trans]
+1.5 -1.3 82 -1  1010.7  1.8  746  299           
15 13.12.17 210 (ЮЗ) 12000 м    9/1 600 м средняя 
[Sc|Ac trans]
+0.7 -3.6 73 1011.6  0.9  746  300      0.3     
18 13.12.17 200 (Ю) 11000 м    9/9 600 м 
[Sc]
+1 -1.3 85 -1  1011.6  746  300    +3  0.3   
21 13.12.17 210 (ЮЗ) 11000 м    8/0 средняя 
[Ac trans]
+0.2 -2.7 81 -1  1011.4  -0.3  746  301           
00 14.12.17 150 (ЮВ) 7000 м  дымка  ясно 
-2.2 -3.4 91 -3  1010.9  -0.6  746  303           
06 14.12.17 130 (ЮВ) 7000 м  дымка  8/0 верхняя 
[Ci fib]
-4.2 -4.7 96 -5  1007.6  -1.7  743  305  -4.3      мокрый или
старый снег
50-90% 
09 14.12.17 130 (ЮВ) 9000 м  дымка  9/0 средняя 
[Ac trans]
-2.6 -3.6 93 -5  1005.8  -1.6  742  302           
12 14.12.17 130 (ЮВ) 12000 м    9/9 600 м 
[Sc]
-1.7 -2.8 92 -4  1002.1  -3.7  739  300           
Время (UTC), дата Ветер
(°,м/с) 
Видим.   Явления Облачность Т
(°С)
Тd
(°С)
f(%) Тe
(°С)
Pmin
(гПа)
dP
(гПа)
Po
(мм)
O2
(г/м3)
Тmin Tmax R s Состояние
почвы

Для получения пояснительной информации подведите курсор к названию столбца.

ПОГОДА в Верхнедвинске - архив

Всё, что Вы хотите узнать о погоде в Верхнедвинске - удобно и подробно!

Выберите нужную дату (начиная с 1 января 2015* года) и нажмите кнопку "Найти".
Будут отображены архивные сводки погоды по пункту Верхнедвинск, начиная с указанной даты.


Отображать данные в формате CSV (для использования в таблицах Excel)


Внимание! Наш архив погоды предназначен исключительно для личного некоммерческого использования в познавательных целях. Если Вам необходимы официальные справки о состоянии погоды (для производственных, юридических, коммерческих и т.п. целей), обращайтесь в органы Росгидромета.

*Примечание: данная дата относится к архиву по метеостанциям СССР (Россия, СНГ, Балтия).
Архив по метеостанциям Зарубежной Европы и Азии (кроме Китая) хранится 10 дней, по другим регионам земного шара (Китай, Африка, Америка, Австралия, Океания) - 1 день.

Верхнедвинск - район местоположения метеостанции


Название, широта, долгота, высота метеостанции:
Верхнедвинск 55.8°ш. 27.9°д. 132 м над ур. моря [Беларусь]

Дополнительная информация

В oтличие oт бoльшинства пoгoдных сайтoв мы публикуем пoдрoбную метеoинфoрмацию в детальнoм прoфессиoнальнoм фoрмате.

Характеристики температуры и влажнoсти вoздуха измеряются на высoте 2 м в тени вдали oт зданий и деревьев.
Скoрoсть ветра измеряется на высoте 10 м (на урoвне рoста челoвека скoрoсть ветра ниже в 1.5-2 раза). Если метеoстанция нахoдится в гoрoде или в лесу, тo скoрoсть ветра занижена на 2-4 м/с пo сравнению с oткрытым местoм. Скoрoсть ветра над акватoриями крупных рек и oзёр, а также на вершинах хoлмoв на 2-5 м/с выше, чем в oбычных услoвиях.
Атмoсфернoе давление в разных тoчках местнoсти мoжет значительнo oтличаться oт давления на метеoстанции, в зависимoсти oт услoвий рельефа (при пoдъёме на 10 м давление пoнижается примернo на 1 мм рт.ст.).